Location: Shepherdstown, WV
(39.4326°N, 77.8042°W)
Time: 05:46:28
(UTC-04:00)

Vanguard 1 - Pass Details

Date: 07 August 2021
Orbit: 652 x 3831 km, 34.3° (Epoch: 24 September)

Event Time Altitude Azimuth Distance (km) Brightness Sun altitude
Rises 08:38:17 0° 218° (SW) 3,440 12.5 25.8°
Reaches altitude 10° 08:41:47 10° 198° (SSW) 2,231 11.8 26.5°
Maximum altitude 08:44:57 17° 157° (SSE) 1,656 11.7 27.1°
Drops below altitude 10° 08:47:52 10° 114° (ESE) 2,047 13.0 27.7°
Sets 08:50:53 0° 94° (E) 3,028 13.9 28.2°
